Simultaneous Nadir Overpasses (SNOs) Predictions

Prediction of SNOs between METOP-A and METOP-B Satellite Orbit:

Table of predicted SNOs for the next 14.0 days since TLE Epoch: 11/20/2021
Index Date (METOP-A) Time (METOP-A) Lat,Lon (METOP-A) SZA (METOP-A ) Date (METOP-B) Time (METOP-B) Lat,Lon (METOP-B) SZA (METOP-B ) Distance(km) Time Diff (sec)
1 11/25/2021 10:29:18 81.24, 66.31 104.69 11/25/2021 10:28:23 81.24, 66.41 104.67 1.61 55
2 11/25/2021 11:19:35 -81.25,-126.40 75.32 11/25/2021 11:19:04 -81.24,-126.29 75.33 2.11 31
3 11/25/2021 12:09:32 81.25, 41.11 104.69 11/25/2021 12:09:44 81.24, 41.29 104.71 3.10 12
4 11/25/2021 12:59:48 -81.24,-151.25 75.29 11/25/2021 13:00:25 -81.24,-151.41 75.29 2.77 37
5 12/01/2021 20:12:47 81.24, -79.56 105.72 12/01/2021 20:12:03 81.24, -79.42 105.72 2.47 44
6 12/01/2021 21:02:57 -81.25, 87.70 74.29 12/01/2021 21:02:44 -81.24, 87.88 74.29 3.21 13
7 12/01/2021 21:53:04 81.24,-104.59 105.73 12/01/2021 21:53:24 81.25,-104.54 105.75 1.16 20



Historial Predications of SNOs between METOP-A and METOP-B
